[[{"header":{"parameterUnit":"m.s-1","parameterCategory":1,"la1":30.2991,"la2":30.254,"lo1":-89.0895,"lo2":-89.0444,"dy":0.0017,"dx":0.0017,"nx":28,"ny":28,"refTime":"2024-07-01T21:00:00:Z","depth":0,"parameterNumber":2,"parameterNumberName":"U-component_of_WINDS"},"data":[0,0,0,0,0,0,0,0,0,0,0,0,0,0,0,0,0,0,0,0,0,0,0,0,0,0,0,0,0,0,0,0,0,0,0,0,0,0,0,0,0,0,0,0,0,0,0,0,0,0,0,0,0,0,0,0,0,0,1.6604,1.6605,0,1.6655,1.6656,1.6656,1.663,1.6628,1.6627,1.6626,1.6676,1.6678,1.6681,0,0,0,0,0,0,0,0,0,0,0,0,0,1.6481,1.6483,1.6604,1.6605,1.6605,1.6655,1.6656,1.6656,1.663,1.6628,1.6626,1.6625,1.6675,1.6678,1.6681,0,0,0,0,0,0,0,0,0,0,0,0,0,1.6533,1.6484,1.6604,1.6598,1.6598,1.6655,1.6656,1.6657,1.663,1.6628,1.6626,1.6624,1.6674,1.6678,1.6681,1.6746,0,0,1.6693,1.6695,0,0,0,0,0,0,0,0,1.653,1.6538,1.6598,1.6599,1.6599,1.6634,1.663,1.6687,1.6631,1.6618,1.6625,1.6623,1.6663,1.6668,1.6682,1.6749,1.6751,1.6694,1.6696,1.6698,1.6699,0,0,0,0,0,0,0,1.6527,1.6535,1.6624,1.6599,1.6599,1.6592,1.6597,1.6641,1.6651,1.6619,1.6617,1.6624,1.6663,1.6678,1.6683,1.6751,1.6694,1.6697,1.6699,1.6701,1.6871,1.6873,0,0,0,0,0,0,1.6524,1.6532,1.6622,1.6626,1.6559,1.6596,1.6602,1.6625,1.6651,1.6653,1.6625,1.6622,1.6672,1.6678,1.6684,1.676,1.6698,1.6701,1.6704,1.6869,1.6872,1.6874,0,0,0,0,0,0,1.6521,1.6532,1.662,1.6579,1.6589,1.66,1.6626,1.6627,1.6642,1.6656,1.6657,1.6639,1.6671,1.6679,1.6731,1.6761,1.6703,1.6707,1.6867,1.687,1.6873,1.6913,0,0,0,0,0,0,1.6518,1.6531,1.6557,1.6579,1.6592,1.6667,1.6628,1.6629,1.6649,1.6645,1.6669,1.6671,1.667,1.6725,1.6734,1.6766,1.671,1.6864,1.6868,1.6872,1.6908,1.6917,1.6924,0,0,0,0,0,1.6513,1.6566,1.6558,1.6569,1.6624,1.6669,1.6675,1.6674,1.6652,1.6676,1.6685,1.667,1.6757,1.673,1.6741,1.6774,1.6862,1.6867,1.6872,1.6905,1.6915,1.6924,0,0,0,0,0,0,1.6546,1.6569,1.656,1.6622,1.6644,1.6664,1.6695,1.6685,1.6713,1.6708,1.6705,1.6711,1.6764,1.6774,1.6744,1.6837,1.6806,1.6813,1.6827,1.6837,1.6845,1.684,1.6713,0,0,0,0,0,1.656,1.6595,1.6613,1.6666,1.6677,1.6685,1.6704,1.6701,1.6723,1.6732,1.6744,1.6766,1.6797,1.6818,1.6849,1.6911,1.6914,1.6938,1.6946,1.6952,1.6958,1.6989,1.6999,1.689,1.689,1.689,0,0,1.659,1.6607,1.6629,1.6673,1.6689,1.6724,1.6692,1.6731,1.6757,1.6738,1.6786,1.6797,1.682,1.6876,1.6902,1.6887,1.6989,1.6959,1.6963,1.6965,1.6995,1.7005,1.7014,1.6894,1.6893,1.6892,0,0,1.6661,1.6679,1.6723,1.6741,1.6766,1.6771,1.6781,1.6804,1.6809,1.6859,1.6844,1.6875,1.693,1.6947,1.6962,1.704,1.7026,1.705,1.7089,1.712,1.7128,1.7136,1.7161,1.717,1.7056,1.7056,1.7056,0,1.6695,1.6748,1.6747,1.6787,1.6806,1.6791,1.6835,1.6851,1.6885,1.6898,1.6881,1.6949,1.6964,1.7023,1.7042,1.7056,1.7066,1.7046,1.7127,1.7135,1.7142,1.7165,1.7175,1.7059,1.7058,1.7058,1.7058,0,1.6786,1.6824,1.6857,1.689,1.6912,1.6954,1.6959,1.6982,1.6977,1.6983,1.7032,1.705,1.7082,1.7097,1.7093,1.7155,1.7144,1.7128,1.7096,1.7155,1.7177,1.7186,1.7062,1.7061,1.7061,1.706,0,0,1.6878,1.6911,1.6922,1.6936,1.6963,1.6991,1.7032,1.7065,1.7083,1.7107,1.7139,1.7187,1.7171,1.7189,1.7187,1.7214,1.7271,1.7193,1.7194,1.7205,1.7338,1.7348,1.7359,1.7263,1.7265,1.7267,1.7335,0,1.695,1.7021,1.7021,1.7087,1.712,1.7106,1.7141,1.7161,1.7167,1.7196,1.7203,1.7235,1.7214,1.7224,1.7251,1.7259,1.7297,1.7254,1.7291,1.7293,1.7283,1.7371,1.7382,1.7446,1.7344,1.7345,1.7346,0,1.7042,1.7069,1.7137,1.7158,1.7172,1.7204,1.7232,1.726,1.7282,1.7285,1.7305,1.7298,1.7338,1.7307,1.736,1.7331,1.7347,1.7353,1.7355,1.7356,1.7321,1.7372,1.7467,1.7475,1.7361,1.7359,1.7358,0,1.7098,1.7152,1.7199,1.7212,1.7239,1.7261,1.7272,1.7292,1.7311,1.7336,1.7348,1.7378,1.7393,1.7416,1.7417,1.7395,1.747,1.744,1.7472,1.7472,1.7486,1.7485,1.7582,1.7501,1.7501,1.75,1.75,0,1.7176,1.7218,1.7225,1.7254,1.73,1.73,1.7345,1.7355,1.7372,1.7402,1.7393,1.742,1.7421,1.7449,1.745,1.7493,1.7501,1.7503,1.7502,1.7502,1.7501,1.751,1.7505,1.7503,1.7502,1.7502,1.7501,0,1.7246,1.7253,1.7303,1.7324,1.733,1.7363,1.738,1.7407,1.7413,1.745,1.7459,1.7468,1.7501,1.7505,1.7543,1.7543,1.7594,1.759,1.7586,1.7585,1.7615,1.7612,1.7719,1.7732,1.7646,1.7646,1.7647,0,1.7294,1.7326,1.735,1.7369,1.7382,1.7414,1.7433,1.7434,1.7455,1.7481,1.7504,1.7536,1.7561,1.7613,1.7622,1.7651,1.7646,1.7682,1.765,1.7648,1.7643,1.764,1.7642,1.7687,1.7688,1.7689,1.7689,0,1.7377,1.7379,1.7407,1.7437,1.746,1.7483,1.7505,1.7521,1.7525,1.7548,1.7582,1.7601,1.764,1.767,1.7698,1.7709,1.7699,1.77,1.7708,1.7707,1.7703,1.7703,1.76,1.7697,1.7696,1.7695,1.7695,1.7695,1.7435,1.7462,1.7483,1.7515,1.7531,1.7552,1.7577,1.7587,1.7615,1.7647,1.7646,1.7682,1.7702,1.7738,1.7751,1.7778,1.7766,1.7779,1.7782,1.7784,1.7786,1.7701,1.7784,1.7784,1.7784,1.7783,1.7783,0,1.7516,1.7529,1.7558,1.7588,1.7613,1.7604,1.7627,1.7647,1.7679,1.7699,1.7724,1.7761,1.7791,1.7803,1.7832,1.7851,1.7847,1.7858,1.7856,1.7858,1.7797,1.7785,1.7861,1.7861,1.7861,1.7861,1.7861,1.7861,1.756,1.7604,1.7608,1.766,1.7672,1.7708,1.7722,1.774,1.7755,1.7798,1.7822,1.7831,1.7847,1.7876,1.7903,1.7905,1.7915,1.7928,1.7928,1.787,1.7862,1.7855,1.7844,1.7931,1.7931,1.7987,1.7987,1.7988]},{"header":{"parameterUnit":"m.s-1","parameterCategory":1,"la1":30.2991,"la2":30.254,"lo1":-89.0895,"lo2":-89.0444,"dy":0.0017,"dx":0.0017,"nx":28,"ny":28,"refTime":"2024-07-01T21:00:00:Z","depth":0,"parameterNumber":3,"parameterNumberName":"V-component_of_WINDS"},"data":[0,0,0,0,0,0,0,0,0,0,0,0,0,0,0,0,0,0,0,0,0,0,0,0,0,0,0,0,0,0,0,0,0,0,0,0,0,0,0,0,0,0,0,0,0,0,0,0,0,0,0,0,0,0,0,0,0,0,2.0719,2.072,0,2.0814,2.0815,2.0816,2.082,2.0818,2.0817,2.0816,2.0911,2.0915,2.0918,0,0,0,0,0,0,0,0,0,0,0,0,0,2.054,2.0543,2.0719,2.072,2.0722,2.0814,2.0815,2.0816,2.082,2.0818,2.0817,2.0816,2.091,2.0914,2.0918,0,0,0,0,0,0,0,0,0,0,0,0,0,2.0624,2.0544,2.0719,2.0735,2.0737,2.0814,2.0815,2.0817,2.082,2.0818,2.0817,2.0815,2.0908,2.0914,2.0919,2.0986,0,0,2.0935,2.0938,0,0,0,0,0,0,0,0,2.0619,2.0631,2.0731,2.0734,2.0736,2.0803,2.0786,2.0873,2.082,2.0788,2.0816,2.0814,2.0876,2.0884,2.0906,2.099,2.0994,2.0936,2.0939,2.0941,2.0943,0,0,0,0,0,0,0,2.0613,2.0627,2.0757,2.0732,2.0736,2.0736,2.0746,2.0803,2.0841,2.0791,2.0792,2.0803,2.0877,2.0901,2.0908,2.0996,2.0936,2.094,2.0944,2.0946,2.114,2.1142,0,0,0,0,0,0,2.0605,2.0622,2.0754,2.0759,2.0673,2.0741,2.0752,2.0783,2.084,2.0847,2.0804,2.0803,2.0892,2.0902,2.0911,2.0993,2.0941,2.0946,2.0949,2.1138,2.114,2.1142,0,0,0,0,0,0,2.0601,2.0617,2.075,2.0691,2.0708,2.0746,2.0781,2.0786,2.0809,2.085,2.0857,2.0821,2.0891,2.0904,2.0967,2.0997,2.0949,2.0954,2.1136,2.1139,2.1141,2.1158,0,0,0,0,0,0,2.0596,2.0615,2.0642,2.0691,2.0711,2.0805,2.0783,2.0789,2.0819,2.0818,2.0867,2.0874,2.0891,2.0959,2.0973,2.1003,2.0958,2.1133,2.1137,2.114,2.1155,2.1161,2.1166,0,0,0,0,0,2.0589,2.0642,2.0643,2.0659,2.0745,2.0807,2.0818,2.0837,2.0821,2.0848,2.0874,2.0872,2.0991,2.0966,2.0981,2.1013,2.1131,2.1136,2.114,2.1152,2.116,2.1166,0,0,0,0,0,0,2.0594,2.0649,2.065,2.0721,2.0759,2.0807,2.0841,2.0844,2.0887,2.0884,2.0905,2.0916,2.098,2.1003,2.0974,2.1081,2.1059,2.1067,2.1064,2.1071,2.1077,2.1069,2.0962,0,0,0,0,0,2.0603,2.065,2.0695,2.0753,2.0772,2.0803,2.0831,2.0842,2.0883,2.0899,2.0929,2.0968,2.1014,2.1044,2.1088,2.1158,2.1169,2.1188,2.1194,2.1198,2.1204,2.1243,2.1251,2.1157,2.1157,2.1157,0,0,2.0623,2.0658,2.0686,2.0754,2.0786,2.0832,2.0817,2.0867,2.0902,2.0906,2.0968,2.0992,2.1036,2.1103,2.1135,2.1125,2.1233,2.1204,2.1207,2.1211,2.1248,2.1257,2.1265,2.116,2.1159,2.1159,0,0,2.0682,2.0714,2.0766,2.0797,2.0845,2.0865,2.0878,2.0926,2.0942,2.1005,2.1008,2.105,2.1129,2.116,2.1186,2.1258,2.1258,2.1272,2.1301,2.1338,2.1346,2.1352,2.1377,2.1386,2.1278,2.1278,2.1278,0,2.07,2.0772,2.0792,2.0842,2.0872,2.0878,2.093,2.096,2.1019,2.1039,2.1027,2.1127,2.1157,2.1231,2.1249,2.127,2.1284,2.1266,2.1343,2.135,2.1356,2.1381,2.139,2.1279,2.1279,2.1279,2.1279,0,2.0791,2.0841,2.0877,2.0935,2.0968,2.1019,2.1046,2.1078,2.1086,2.1108,2.1171,2.1208,2.126,2.1278,2.1287,2.1354,2.1346,2.1339,2.1317,2.1367,2.139,2.1399,2.1281,2.128,2.128,2.128,0,0,2.0856,2.0924,2.0937,2.0963,2.1016,2.1055,2.1106,2.1157,2.1184,2.1224,2.1267,2.1334,2.1327,2.1357,2.1369,2.1402,2.1455,2.139,2.1391,2.14,2.1531,2.1536,2.1547,2.1456,2.1458,2.1459,2.1527,0,2.0921,2.1013,2.1032,2.1111,2.1157,2.1163,2.1208,2.1245,2.1266,2.1307,2.1331,2.1378,2.1365,2.1383,2.1416,2.1442,2.1482,2.1437,2.1495,2.1497,2.1484,2.1559,2.1565,2.1627,2.1536,2.1538,2.1539,0,2.1009,2.1052,2.1136,2.1183,2.1203,2.1242,2.1291,2.1331,2.1372,2.1386,2.1419,2.1428,2.148,2.1457,2.1529,2.1498,2.1523,2.1539,2.1542,2.1548,2.1521,2.1566,2.1647,2.1657,2.1553,2.1552,2.1551,0,2.1047,2.1127,2.1187,2.1209,2.1265,2.1293,2.1318,2.1358,2.1387,2.143,2.1449,2.1497,2.1523,2.1559,2.158,2.1561,2.165,2.1629,2.1662,2.1662,2.1681,2.1679,2.1767,2.1697,2.1697,2.1697,2.1697,0,2.1117,2.1168,2.1205,2.1242,2.1299,2.1321,2.1376,2.14,2.1436,2.1477,2.1486,2.1524,2.155,2.1591,2.1608,2.1665,2.1677,2.1688,2.1692,2.1688,2.1686,2.1704,2.17,2.1699,2.1699,2.1698,2.1698,0,2.117,2.1196,2.1263,2.1311,2.1324,2.1364,2.1404,2.144,2.1462,2.1514,2.1527,2.1561,2.1611,2.1635,2.1697,2.1708,2.1772,2.1774,2.1759,2.176,2.1792,2.1789,2.1894,2.1909,2.183,2.183,2.1831,0,2.1213,2.1252,2.1304,2.1333,2.1359,2.1405,2.1435,2.1458,2.1489,2.154,2.1569,2.162,2.1661,2.174,2.1769,2.1816,2.1818,2.1852,2.1825,2.182,2.1819,2.1816,2.182,2.1857,2.1857,2.1858,2.1859,0,2.1286,2.1297,2.1341,2.139,2.1427,2.1466,2.1505,2.1528,2.1556,2.1591,2.1643,2.1675,2.1738,2.1788,2.1837,2.1861,2.1865,2.1867,2.1877,2.1873,2.1862,2.1868,2.1771,2.1864,2.1864,2.1863,2.1863,2.1863,2.1334,2.137,2.1412,2.1461,2.1493,2.1529,2.1565,2.1592,2.1635,2.1689,2.1699,2.1754,2.1794,2.1861,2.1887,2.1929,2.1921,2.1936,2.194,2.1943,2.1945,2.1856,2.1938,2.1938,2.1938,2.1938,2.1937,0,2.1408,2.1436,2.148,2.1535,2.1573,2.1574,2.1617,2.1649,2.1697,2.1735,2.1775,2.1834,2.1882,2.1916,2.1965,2.1992,2.1995,2.2004,2.2002,2.2007,2.1949,2.1935,2.2001,2.2001,2.2001,2.2001,2.2001,2.2001,2.145,2.151,2.1526,2.1602,2.1629,2.1683,2.1708,2.1741,2.1771,2.1837,2.1877,2.1899,2.1935,2.1986,2.203,2.2039,2.2056,2.2065,2.2074,2.2018,2.2012,2.2005,2.1992,2.2069,2.2069,2.2129,2.2129,2.213]}]]